Zurück zum Katalog

THORAD AGENA D DEB

AktivLEO
NORAD 4216·DEBRIS·🇺🇸 United States

Gestartet Sep 30, 1969 von Vandenberg Space Force Base

Loading…

Nächste Überflüge (nächste 24 Stunden)

TLE

AktuellSource: Space-Track

Epoche: Sep 14, 2026, 14:22 UTC

1 04216U 69082CF  26257.59911741  .00000281  00000-0  14277-3 0  9992
2 04216  70.1058 200.9167 0047249   4.8795 355.2776 14.24806942174096

Verfolge THORAD AGENA D DEB in Echtzeit mit AllMySat

Download on the App Store